Weather History for Northway, AK

Change the Weather History Date:

Sunday, May 25, 2014

  Actual Average Record
Temperature  
Mean Temperature 49 °F -  
Max Temperature 61 °F 61 °F 79 °F (2002)
Min Temperature 37 °F 35 °F 30 °F (1963)
Degree Days  
Heating Degree Days 16    
Moisture  
Dew Point 33 °F    
Average Humidity 52    
Maximum Humidity 89    
Minimum Humidity 30    
Precipitation  
Precipitation 0.00 in - - ()
Sea Level Pressure  
Sea Level Pressure 29.88 in    
Wind  
Wind Speed 6 mph (WNW)    
Max Wind Speed 17 mph    
Max Gust Speed 24 mph    
Visibility 8 miles    
Events      
Averages and records for this station are not official NWS values.
T = Trace of Precipitation, MM = Missing Value Source: NWS Daily Summary

Daily Weather History Graph

Daily Weather History Graph

Search for Another Location

Airport:

Trip Planner

Search our weather history database for the weather conditions in past years. The results will help you decide how hot, cold, wet, or windy it might be!

Date:

Astronomy

May. 25, 2014 Rise Set
Actual Time 3:57 AM AKDT 10:53 PM AKDT
Civil Twilight 1:42 AM AKDT 12:52 AM AKDT
Nautical Twilight Sun does not rise Sun does not rise
Astronomical Twilight Sun does not rise Sun does not rise
Moon 3:28 AM AKDT (5/25) 6:54 PM AKDT (5/25)
Length of Visible Light 23h 10m
Length of Day
18h 56m
Waning Crescent, 9% of the Moon is Illuminated
May 25
Waning Crescent
May 28
New
Jun 5
First Quarter
Jun 12
Full
Jun 19
Last Quarter

Hourly Weather History & Observations

Time (AKDT) Temp. Windchill Dew Point Humidity Pressure Visibility Wind Dir Wind Speed Gust Speed Precip Events Conditions
12:53 AM 45.0 °F 41.8 °F 32.0 °F 60% 29.90 in 6.0 mi WSW 5.8 mph - N/A   Haze
1:53 AM 39.9 °F - 33.1 °F 77% 29.90 in 8.0 mi Calm Calm - N/A   Smoke
2:53 AM 37.9 °F 34.4 °F 35.1 °F 89% 29.91 in 8.0 mi ENE 4.6 mph - N/A   Smoke
3:53 AM 37.9 °F - 35.1 °F 89% 29.91 in 7.0 mi Calm Calm - N/A   Smoke
4:53 AM 39.0 °F 36.8 °F 34.0 °F 82% 29.90 in 7.0 mi East 3.5 mph - N/A   Smoke
5:53 AM 39.9 °F 36.7 °F 34.0 °F 79% 29.90 in 7.0 mi East 4.6 mph - N/A   Smoke
6:53 AM 44.6 °F - 35.6 °F 71% 29.87 in 7.0 mi Calm Calm - N/A   Clear
7:53 AM 50.0 °F - 36.0 °F 59% 29.88 in 8.0 mi Calm Calm - N/A   Scattered Clouds
8:53 AM 52.0 °F - 32.0 °F 47% 29.87 in 9.0 mi Variable 6.9 mph - N/A   Clear
9:53 AM 55.9 °F - 30.0 °F 37% 29.86 in 5.0 mi West 13.8 mph 21.9 mph N/A   Smoke
10:53 AM 57.0 °F - 30.0 °F 36% 29.87 in 4.0 mi West 13.8 mph 23.0 mph N/A   Smoke
11:53 AM 57.0 °F - 30.0 °F 36% 29.86 in 4.0 mi WSW 16.1 mph 23.0 mph N/A   Smoke
12:53 PM 59.0 °F - 28.9 °F 32% 29.86 in 4.0 mi WSW 17.3 mph 24.2 mph N/A   Smoke
1:53 PM 60.1 °F - 30.0 °F 32% 29.86 in 6.0 mi West 8.1 mph 21.9 mph N/A   Smoke
2:53 PM 57.0 °F - 28.9 °F 34% 29.86 in 9.0 mi WNW 8.1 mph - N/A   Smoke
3:53 PM 60.1 °F - 30.0 °F 32% 29.85 in 9.0 mi WNW 12.7 mph 19.6 mph N/A   Smoke
4:53 PM 61.0 °F - 28.9 °F 30% 29.85 in 10.0 mi WNW 10.4 mph 18.4 mph N/A   Smoke
5:53 PM 61.0 °F - 28.9 °F 30% 29.84 in 10.0 mi NW 11.5 mph 17.3 mph N/A   Smoke
6:53 PM 59.0 °F - 30.0 °F 33% 29.84 in 9.0 mi Variable 4.6 mph - N/A   Smoke
7:53 PM 57.0 °F - 32.0 °F 39% 29.84 in 8.0 mi WNW 8.1 mph - N/A   Smoke
8:53 PM 54.0 °F - 37.0 °F 53% 29.87 in 10.0 mi NW 6.9 mph - N/A   Smoke
9:53 PM 52.0 °F - 36.0 °F 54% 29.88 in 10.0 mi NNW 8.1 mph - N/A   Mostly Cloudy
10:53 PM 50.0 °F - 36.0 °F 59% 29.90 in 10.0 mi NW 3.5 mph - N/A   Mostly Cloudy
11:53 PM 46.9 °F - 37.0 °F 68% 29.93 in 10.0 mi Calm Calm - N/A   Mostly Cloudy